EW0923 Weather Reports


Display with metric or nautical units.
time (UTC)temp
F
wind
direction
speed
MPH
gust
MPH
rain 1hr
in
rain 24hr
in
rain mn
in
humidity
%
barometer
mb
20260906194602 79 312 2.0 5.0 0.00 0.00 0.00 47 1013.8
20260906194025 80 88 2.0 5.0 0.00 0.00 0.00 46 1013.8
20260906193529 80 52 1.0 5.0 0.00 0.00 0.00 48 1013.8
20260906193054 79 288 2.0 6.0 0.00 0.00 0.00 48 1013.8
20260906192526 79 339 1.0 6.0 0.00 0.00 0.00 50 1013.8
20260906192031 79 307 1.0 11.0 0.00 0.00 0.00 53 1013.9
20260906191554 78 315 2.0 11.0 0.00 0.00 0.00 52 1013.9
20260906191028 78 311 3.0 11.0 0.00 0.00 0.00 53 1013.9
20260906190527 78 318 2.0 11.0 0.00 0.00 0.00 56 1013.9
20260906190051 78 340 4.0 11.0 0.00 0.00 0.00 55 1013.8
20260906185526 78 334 2.0 9.0 0.00 0.00 0.00 54 1013.9
20260906185024 77 320 2.0 8.0 0.00 0.00 0.00 58 1014.0
20260906184601 77 9 3.0 11.0 0.00 0.00 0.00 56 1014.0
20260906184025 77 36 2.0 11.0 0.00 0.00 0.00 58 1014.1
20260906183525 78 346 3.0 11.0 0.00 0.00 0.00 57 1014.1
20260906183100 79 28 3.0 11.0 0.00 0.00 0.00 54 1014.3
20260906182527 79 282 0.0 6.0 0.00 0.00 0.00 57 1014.0
20260906182029 78 319 1.0 6.0 0.00 0.00 0.00 55 1014.2
20260906181600 78 327 2.0 9.0 0.00 0.00 0.00 57 1014.2
20260906181027 77 71 2.0 9.0 0.00 0.00 0.00 58 1014.1
20260906180527 76 336 2.0 7.0 0.00 0.00 0.00 60 1014.2
20260906180105 76 315 4.0 11.0 0.00 0.00 0.00 58 1014.3
20260906175527 77 318 4.0 11.0 0.00 0.00 0.00 58 1014.2
20260906175026 78 333 3.0 11.0 0.00 0.00 0.00 56 1014.3
20260906174600 77 269 1.0 8.0 0.00 0.00 0.00 59 1014.2
20260906174025 77 351 3.0 8.0 0.00 0.00 0.00 56 1014.2
20260906173524 78 309 2.0 5.0 0.00 0.00 0.00 55 1014.3
20260906173057 79 300 2.0 6.0 0.00 0.00 0.00 54 1014.2
20260906172530 79 51 2.0 10.0 0.00 0.00 0.00 54 1014.3
20260906172027 79 328 2.0 10.0 0.00 0.00 0.00 52 1014.3
20260906171604 79 56 3.0 10.0 0.00 0.00 0.00 55 1014.2
20260906171032 79 332 4.0 10.0 0.00 0.00 0.00 53 1014.3
20260906170527 78 17 2.0 9.0 0.00 0.00 0.00 53 1014.3
20260906170057 78 61 3.0 10.0 0.00 0.00 0.00 54 1014.3
20260906165526 78 302 1.0 10.0 0.00 0.00 0.00 54 1014.3
20260906165029 77 28 4.0 12.0 0.00 0.00 0.00 57 1014.2
20260906164547 77 360 5.0 12.0 0.00 0.00 0.00 56 1014.3
20260906164028 78 73 4.0 11.0 0.00 0.00 0.00 59 1014.3
20260906163525 78 350 2.0 7.0 0.00 0.00 0.00 59 1014.3
20260906163046 78 42 2.0 9.0 0.00 0.00 0.00 60 1014.3
20260906162529 77 61 2.0 9.0 0.00 0.00 0.00 60 1014.4
20260906162028 77 315 3.0 9.0 0.00 0.00 0.00 59 1014.5
20260906161615 76 56 2.0 8.0 0.00 0.00 0.00 62 1014.4
20260906161027 76 308 1.0 8.0 0.00 0.00 0.00 62 1014.4
20260906160528 75 88 1.0 7.0 0.00 0.00 0.00 64 1014.3
20260906160049 75 323 2.0 7.0 0.00 0.00 0.00 64 1014.6
20260906155530 76 63 3.0 11.0 0.00 0.00 0.00 62 1014.5
20260906155024 76 29 3.0 11.0 0.00 0.00 0.00 65 1014.5
20260906154550 74 39 3.0 12.0 0.00 0.00 0.00 65 1014.6
20260906154032 75 37 4.0 12.0 0.00 0.00 0.00 63 1014.5
20260906153525 76 33 3.0 9.0 0.00 0.00 0.00 64 1014.5
20260906153106 76 88 3.0 6.0 0.00 0.00 0.00 63 1014.5
20260906152528 75 37 1.0 6.0 0.00 0.00 0.00 64 1014.4
20260906152028 75 67 1.0 8.0 0.00 0.00 0.00 64 1014.5
20260906151544 76 44 1.0 8.0 0.00 0.00 0.00 64 1014.6
20260906151028 76 324 1.0 7.0 0.00 0.00 0.00 65 1014.6
20260906150527 76 22 2.0 7.0 0.00 0.00 0.00 65 1014.6
20260906150048 76 74 3.0 9.0 0.00 0.00 0.00 66 1014.6
20260906145524 75 63 3.0 9.0 0.00 0.00 0.00 66 1014.5
20260906145028 75 66 2.0 8.0 0.00 0.00 0.00 68 1014.5
20260906144549 75 114 3.0 7.0 0.00 0.00 0.00 67 1014.5
20260906144024 74 85 1.0 4.0 0.00 0.00 0.00 69 1014.3
20260906143525 74 71 2.0 4.0 0.00 0.00 0.00 71 1014.4
20260906143053 74 65 2.0 7.0 0.00 0.00 0.00 70 1014.4
20260906142527 74 53 1.0 7.0 0.00 0.00 0.00 73 1014.4
20260906142028 73 82 2.0 7.0 0.00 0.00 0.00 73 1014.4
20260906141609 72 70 2.0 7.0 0.00 0.00 0.00 74 1014.4
20260906141028 72 80 3.0 7.0 0.00 0.00 0.00 74 1014.3
20260906140526 72 50 2.0 5.0 0.00 0.00 0.00 74 1014.4
20260906140050 72 333 1.0 8.0 0.00 0.00 0.00 75 1014.4
20260906135527 72 42 2.0 8.0 0.00 0.00 0.00 75 1014.3
20260906135027 72 40 1.0 6.0 0.00 0.00 0.00 76 1014.3
20260906134549 72 329 1.0 5.0 0.00 0.00 0.00 76 1014.3
20260906134027 72 313 1.0 5.0 0.00 0.00 0.00 75 1014.2
20260906133525 72 31 1.0 5.0 0.00 0.00 0.00 76 1014.1
20260906133056 72 119 0.0 5.0 0.00 0.00 0.00 76 1014.1
20260906132526 71 327 2.0 6.0 0.00 0.00 0.00 76 1014.1
20260906132024 71 55 2.0 6.0 0.00 0.00 0.00 77 1014.0
20260906131605 71 42 2.0 6.0 0.00 0.00 0.00 76 1014.0
20260906131027 70 51 0.0 5.0 0.00 0.00 0.00 78 1014.1
20260906130527 70 314 1.0 5.0 0.00 0.00 0.00 77 1014.0
20260906130058 71 51 1.0 4.0 0.00 0.00 0.00 77 1014.0
20260906125527 70 350 0.0 4.0 0.00 0.00 0.00 79 1013.9
20260906125025 69 42 1.0 6.0 0.00 0.00 0.00 78 1014.0
20260906124547 69 0 3.0 6.0 0.00 0.00 0.00 79 1014.1
20260906124025 69 44 1.0 4.0 0.00 0.00 0.00 79 1014.0
20260906123524 69 59 1.0 4.0 0.00 0.00 0.00 79 1013.9
20260906123050 68 335 1.0 4.0 0.00 0.00 0.00 79 1013.8
20260906122525 68 51 2.0 4.0 0.00 0.00 0.00 80 1013.9
20260906122027 68 321 1.0 4.0 0.00 0.00 0.00 80 1013.9
20260906121547 68 19 0.0 4.0 0.00 0.00 0.00 80 1013.8
20260906121029 67 46 1.0 4.0 0.00 0.00 0.00 82 1013.6
20260906120527 67 13 0.0 4.0 0.00 0.00 0.00 84 1013.7
20260906120101 66 331 1.0 3.0 0.00 0.00 0.00 84 1013.6
20260906115527 66 335 0.0 3.0 0.00 0.00 0.00 86 1013.5
20260906115024 65 327 0.0 1.0 0.00 0.00 0.00 87 1013.5
20260906114551 64 0 0.0 1.0 0.00 0.00 0.00 90 1013.5
20260906114023 63 320 0.0 1.0 0.00 0.00 0.00 92 1013.5
20260906113524 63 0 0.0 0.0 0.00 0.00 0.00 94 1013.4
20260906113047 62 0 0.0 0.0 0.00 0.00 0.00 94 1013.2
20260906112524 62 0 0.0 0.0 0.00 0.00 0.00 94 1013.3
20260906112028 62 0 0.0 0.0 0.00 0.00 0.00 95 1013.2
20260906111546 61 0 0.0 0.0 0.00 0.00 0.00 95 1013.1
20260906111027 60 0 0.0 0.0 0.00 0.00 0.00 95 1013.0
20260906110528 60 0 0.0 0.0 0.00 0.00 0.00 95 1013.0
20260906110054 59 0 0.0 0.0 0.00 0.00 0.00 95 1013.1
20260906105527 59 0 0.0 0.0 0.00 0.00 0.00 95 1012.9
20260906105028 59 0 0.0 0.0 0.00 0.00 0.00 95 1012.9
20260906104551 59 0 0.0 0.0 0.00 0.00 0.00 95 1012.9
20260906104028 59 0 0.0 0.0 0.00 0.00 0.00 95 1012.8
20260906103524 59 0 0.0 0.0 0.00 0.00 0.00 95 1012.7
20260906103048 59 0 0.0 0.0 0.00 0.00 0.00 95 1012.5
20260906102528 59 0 0.0 0.0 0.00 0.00 0.00 95 1012.6
20260906102024 59 0 0.0 0.0 0.00 0.00 0.00 95 1012.5
20260906101547 59 0 0.0 0.0 0.00 0.00 0.00 95 1012.4
20260906101027 59 0 0.0 0.0 0.00 0.00 0.00 95 1012.4
20260906100533 59 0 0.0 0.0 0.00 0.00 0.00 95 1012.3
20260906100045 59 0 0.0 0.0 0.00 0.00 0.00 94 1012.3
20260906095527 59 0 0.0 0.0 0.00 0.00 0.00 94 1012.2
20260906095025 59 0 0.0 0.0 0.00 0.00 0.00 94 1012.3
20260906094557 59 0 0.0 0.0 0.00 0.00 0.00 95 1012.1
20260906094024 59 0 0.0 0.0 0.00 0.00 0.00 94 1012.1
20260906093524 60 0 0.0 0.0 0.00 0.00 0.00 94 1012.0
20260906093051 60 0 0.0 0.0 0.00 0.00 0.00 95 1011.8
20260906092528 60 0 0.0 0.0 0.00 0.00 0.00 95 1011.9
20260906092026 60 0 0.0 0.0 0.00 0.00 0.00 95 1011.8
20260906091548 60 0 0.0 0.0 0.00 0.00 0.00 95 1011.6
20260906091028 60 0 0.0 0.0 0.00 0.00 0.00 95 1011.6
20260906090524 60 0 0.0 0.0 0.00 0.00 0.00 94 1011.6
20260906090056 60 0 0.0 0.0 0.00 0.00 0.00 94 1011.6
20260906085528 60 0 0.0 0.0 0.00 0.00 0.00 94 1011.5
20260906085028 60 0 0.0 0.0 0.00 0.00 0.00 94 1011.7
20260906084549 60 0 0.0 0.0 0.00 0.00 0.00 94 1011.5
20260906084035 60 0 0.0 0.0 0.00 0.00 0.00 94 1011.5
20260906083527 60 0 0.0 0.0 0.00 0.00 0.00 94 1011.3
20260906083048 60 0 0.0 0.0 0.00 0.00 0.00 94 1011.4
20260906082524 60 0 0.0 0.0 0.00 0.00 0.00 94 1011.4
20260906082025 60 0 0.0 0.0 0.00 0.00 0.00 94 1011.2
20260906081548 60 0 0.0 0.0 0.00 0.00 0.00 94 1011.3
20260906081026 60 0 0.0 0.0 0.00 0.00 0.00 94 1011.3
20260906080525 61 0 0.0 0.0 0.00 0.00 0.00 94 1011.4
20260906080048 61 0 0.0 0.0 0.00 0.00 0.00 94 1011.3
20260906075524 61 0 0.0 0.0 0.00 0.00 0.00 94 1011.4
20260906075025 61 0 0.0 0.0 0.00 0.00 0.00 94 1011.3
20260906074543 61 0 0.0 0.0 0.00 0.00 0.00 94 1011.3
20260906074027 61 0 0.0 0.0 0.00 0.00 0.00 94 1011.4
20260906073528 61 0 0.0 0.0 0.00 0.00 0.00 94 1011.4
20260906073046 61 0 0.0 0.0 0.00 0.00 0.00 94 1011.3
20260906072528 61 0 0.0 0.0 0.00 0.00 0.00 94 1011.3
20260906072026 61 0 0.0 0.0 0.00 0.00 0.00 94 1011.3
20260906071549 61 0 0.0 0.0 0.00 0.00 0.00 94 1011.2
20260906071028 61 0 0.0 0.0 0.00 0.00 0.00 94 1011.3
20260906070528 61 0 0.0 0.0 0.00 0.00 0.00 94 1011.4
20260906070048 61 0 0.0 0.0 0.00 0.00 0.00 94 1011.2
20260906065528 61 0 0.0 0.0 0.00 0.00 0.00 94 1011.2
20260906065029 61 0 0.0 0.0 0.00 0.00 0.00 94 1011.2
20260906064552 61 0 0.0 0.0 0.00 0.00 0.00 94 1011.3
20260906064027 61 0 0.0 0.0 0.00 0.00 0.00 93 1011.2
20260906063526 61 0 0.0 0.0 0.00 0.00 0.00 94 1011.2
20260906063048 61 0 0.0 0.0 0.00 0.00 0.00 93 1011.2
20260906062530 61 0 0.0 0.0 0.00 0.00 0.00 93 1011.3
20260906062027 62 0 0.0 0.0 0.00 0.00 0.00 94 1011.4
20260906061551 62 0 0.0 0.0 0.00 0.00 0.00 93 1011.4
20260906061026 62 0 0.0 0.0 0.00 0.00 0.00 94 1011.4
20260906060526 62 0 0.0 0.0 0.00 0.00 0.00 94 1011.4
20260906060059 62 0 0.0 0.0 0.00 0.00 0.00 93 1011.5
20260906055527 62 0 0.0 0.0 0.00 0.00 0.00 93 1011.5
20260906055027 62 0 0.0 0.0 0.00 0.00 0.00 93 1011.5
20260906054606 62 0 0.0 0.0 0.00 0.00 0.00 93 1011.4
20260906054026 62 0 0.0 0.0 0.00 0.00 0.00 93 1011.6
20260906053528 62 0 0.0 0.0 0.00 0.00 0.00 93 1011.5
20260906053046 62 0 0.0 0.0 0.00 0.00 0.00 93 1011.7
20260906052527 62 0 0.0 0.0 0.00 0.00 0.00 93 1011.6
20260906052028 62 0 0.0 0.0 0.00 0.00 0.00 93 1011.6
20260906051546 62 0 0.0 0.0 0.00 0.00 0.00 93 1011.6
20260906051024 62 0 0.0 0.0 0.00 0.00 0.00 92 1011.7
20260906050529 62 0 0.0 0.0 0.00 0.00 0.00 92 1011.7
20260906050045 62 0 0.0 0.0 0.00 0.00 0.00 92 1011.7
20260906045525 63 0 0.0 0.0 0.00 0.01 0.00 92 1011.7
20260906045025 63 0 0.0 0.0 0.00 0.01 0.00 92 1011.8
20260906044550 63 0 0.0 0.0 0.00 0.01 0.00 92 1011.8
20260906044031 63 0 0.0 0.0 0.00 0.01 0.00 92 1011.7
20260906043529 63 0 0.0 0.0 0.00 0.01 0.00 92 1011.8
20260906043047 63 0 0.0 0.0 0.00 0.01 0.00 91 1011.8
20260906042525 63 0 0.0 0.0 0.00 0.01 0.00 91 1011.8
20260906042026 63 0 0.0 0.0 0.00 0.01 0.00 91 1011.7
20260906041548 63 0 0.0 0.0 0.00 0.01 0.00 91 1011.8
20260906041026 63 0 0.0 0.0 0.00 0.01 0.00 91 1011.7
20260906040527 63 0 0.0 0.0 0.00 0.01 0.00 91 1011.7
20260906040048 63 0 0.0 0.0 0.00 0.01 0.00 91 1011.7
20260906035527 63 0 0.0 0.0 0.00 0.01 0.01 91 1011.7
20260906035025 63 0 0.0 0.0 0.00 0.01 0.01 91 1011.6
20260906034601 63 0 0.0 0.0 0.00 0.01 0.01 91 1011.7
20260906034026 64 0 0.0 0.0 0.00 0.01 0.01 91 1011.7
20260906033526 64 0 0.0 0.0 0.00 0.01 0.01 91 1011.7
20260906033047 64 0 0.0 0.0 0.00 0.01 0.01 91 1011.7
20260906032526 64 0 0.0 0.0 0.00 0.01 0.01 91 1011.7
20260906032026 64 0 0.0 0.0 0.00 0.01 0.01 91 1011.5
20260906031556 64 0 0.0 0.0 0.00 0.01 0.01 90 1011.5
20260906031026 64 0 0.0 0.0 0.00 0.01 0.01 90 1011.4
20260906030527 65 0 0.0 0.0 0.00 0.01 0.01 90 1011.4
20260906030045 65 0 0.0 0.0 0.00 0.01 0.01 90 1011.5
20260906025528 65 0 0.0 0.0 0.00 0.01 0.01 90 1011.5
20260906025027 65 0 0.0 0.0 0.00 0.01 0.01 90 1011.4
20260906024553 65 0 0.0 0.0 0.00 0.01 0.01 89 1011.5
20260906024028 65 0 0.0 0.0 0.00 0.01 0.01 89 1011.4
20260906023525 65 0 0.0 0.0 0.00 0.01 0.01 89 1011.4
20260906023048 65 0 0.0 0.0 0.00 0.01 0.01 89 1011.5
20260906022526 65 0 0.0 0.0 0.00 0.01 0.01 89 1011.3
20260906022026 65 0 0.0 0.0 0.00 0.01 0.01 89 1011.2
20260906021551 65 0 0.0 0.0 0.00 0.01 0.01 89 1011.3
20260906021027 65 0 0.0 0.0 0.00 0.01 0.01 89 1011.3
20260906020525 65 0 0.0 0.0 0.00 0.01 0.01 88 1011.3
20260906020052 65 0 0.0 0.0 0.00 0.01 0.01 88 1011.2
20260906015527 66 0 0.0 0.0 0.00 0.01 0.01 87 1011.2
20260906015028 66 0 0.0 0.0 0.00 0.01 0.01 87 1011.1
20260906014551 66 0 0.0 0.0 0.00 0.01 0.01 87 1011.1
20260906014030 66 0 0.0 0.0 0.00 0.01 0.01 86 1011.0
20260906013524 66 0 0.0 0.0 0.00 0.01 0.01 86 1011.1
20260906013049 66 0 0.0 0.0 0.00 0.01 0.01 86 1011.0
20260906012526 66 0 0.0 0.0 0.00 0.01 0.01 86 1010.9
20260906012026 66 0 0.0 0.0 0.00 0.01 0.01 85 1010.9
20260906011546 67 0 0.0 0.0 0.00 0.01 0.01 84 1010.8
20260906011027 67 0 0.0 0.0 0.00 0.01 0.01 83 1010.7
20260906010525 67 0 0.0 0.0 0.00 0.01 0.01 83 1010.8
20260906010136 67 0 0.0 0.0 0.00 0.01 0.01 83 1010.8
20260906005528 67 0 0.0 0.0 0.00 0.01 0.01 82 1010.7
20260906005025 67 0 0.0 0.0 0.00 0.01 0.01 81 1010.7
20260906004556 68 0 0.0 0.0 0.00 0.01 0.01 81 1010.7
20260906004030 68 0 0.0 0.0 0.00 0.01 0.01 80 1010.6
20260906003525 68 0 0.0 0.0 0.00 0.01 0.01 79 1010.7
20260906003045 68 0 0.0 0.0 0.00 0.01 0.01 79 1010.5
20260906002523 68 0 0.0 0.0 0.00 0.01 0.01 78 1010.4
20260906002025 69 0 0.0 0.0 0.00 0.01 0.01 77 1010.4
20260906001557 69 0 0.0 0.0 0.00 0.01 0.01 77 1010.3
20260906001028 69 0 0.0 0.0 0.00 0.01 0.01 76 1010.4
20260906000524 70 0 0.0 0.0 0.00 0.01 0.01 75 1010.3
20260906000049 70 0 0.0 0.0 0.00 0.01 0.01 73 1010.1
20260905235524 70 0 0.0 0.0 0.00 0.01 0.01 73 1010.1
20260905235026 71 0 0.0 0.0 0.00 0.01 0.01 73 1010.0
20260905234548 71 0 0.0 0.0 0.00 0.01 0.01 72 1010.0
20260905234025 72 0 0.0 0.0 0.00 0.01 0.01 70 1009.8
20260905233525 72 0 0.0 0.0 0.00 0.01 0.01 69 1009.7
20260905233046 73 0 0.0 0.0 0.00 0.01 0.01 68 1009.8
20260905232530 74 0 0.0 0.0 0.00 0.01 0.01 66 1009.6
20260905232025 75 0 0.0 0.0 0.00 0.01 0.01 66 1009.7
20260905231555 76 0 0.0 1.0 0.00 0.01 0.01 65 1009.6
20260905231028 76 0 0.0 2.0 0.00 0.01 0.01 61 1009.7
20260905230524 77 0 0.0 3.0 0.00 0.01 0.01 57 1009.7
20260905230048 77 0 0.0 3.0 0.00 0.01 0.01 58 1009.8
20260905225530 77 329 0.0 3.0 0.00 0.01 0.01 57 1009.8
20260905225024 77 341 1.0 3.0 0.00 0.01 0.01 56 1009.7
20260905224555 78 327 1.0 3.0 0.00 0.01 0.01 55 1009.7
20260905224025 78 336 0.0 3.0 0.00 0.01 0.01 55 1009.8
20260905223526 78 318 1.0 3.0 0.00 0.01 0.01 55 1009.6
20260905223056 78 0 1.0 4.0 0.00 0.01 0.01 54 1009.6
20260905222523 78 340 1.0 4.0 0.00 0.01 0.01 53 1009.6
20260905222027 79 318 1.0 4.0 0.00 0.01 0.01 54 1009.6
20260905221548 79 0 1.0 4.0 0.00 0.01 0.01 53 1009.5
20260905221024 79 38 1.0 5.0 0.00 0.01 0.01 52 1009.4
20260905220524 79 0 0.0 5.0 0.00 0.01 0.01 54 1009.5
20260905220048 79 34 2.0 5.0 0.00 0.01 0.01 55 1009.4
20260905215525 79 12 0.0 3.0 0.00 0.01 0.01 54 1009.5
20260905215024 79 307 1.0 8.0 0.00 0.01 0.01 54 1009.5
20260905214546 79 118 1.0 8.0 0.00 0.01 0.01 53 1009.4
20260905214025 79 63 3.0 7.0 0.00 0.01 0.01 52 1009.4
20260905213528 79 100 3.0 5.0 0.00 0.01 0.01 52 1009.4
20260905213051 79 58 1.0 5.0 0.00 0.01 0.01 52 1009.4
20260905212531 79 112 1.0 5.0 0.00 0.01 0.01 53 1009.3
20260905212025 79 36 1.0 7.0 0.00 0.01 0.01 53 1009.3
20260905211547 79 58 2.0 7.0 0.00 0.01 0.01 52 1009.3
20260905211028 80 42 2.0 6.0 0.00 0.01 0.01 51 1009.3
20260905210524 80 67 2.0 5.0 0.00 0.01 0.01 51 1009.2
20260905210112 80 61 2.0 5.0 0.00 0.01 0.01 52 1009.3
20260905205524 80 0 1.0 6.0 0.00 0.01 0.01 52 1009.1
20260905205025 80 36 1.0 10.0 0.00 0.01 0.01 51 1009.1
20260905204542 80 49 3.0 10.0 0.00 0.01 0.01 49 1009.1
20260905204025 81 37 2.0 10.0 0.00 0.01 0.01 48 1009.1
20260905203529 81 30 1.0 6.0 0.00 0.01 0.01 50 1009.2
20260905203050 81 46 1.0 6.0 0.00 0.01 0.01 49 1009.1
20260905202525 81 49 1.0 6.0 0.00 0.01 0.01 49 1009.1
20260905202024 82 65 1.0 6.0 0.00 0.01 0.01 49 1009.1
20260905201544 82 41 2.0 9.0 0.00 0.01 0.01 49 1009.1
20260905201025 81 36 3.0 9.0 0.00 0.01 0.01 46 1009.2
20260905200524 81 65 2.0 8.0 0.00 0.01 0.01 46 1009.2
20260905200110 81 64 3.0 8.0 0.00 0.01 0.01 50 1009.2
20260905195526 81 282 2.0 9.0 0.00 0.01 0.01 50 1009.3
20260905195030 81 312 4.0 9.0 0.00 0.01 0.01 50 1009.4